Total_Precipitation_Accumulation
0.08 0.14 0.16 0.17 0.16 0.15 0.11 0.10 0.15 0.17 0.23 0.23 0.21 0.30 0.21 0.19 0.18 0.14 0.08 0.05 0.04 0.04 0.07 0.14 0.19 0.15 0.12 0.14 0.17 0.23 0.29 0.29 0.23 0.18 0.17 0.18 0.19 0.20 0.22 0.23 0.22 0.27 0.31 0.34
0.09 0.11 0.12 0.13 0.15 0.12 0.08 0.06 0.06 0.10 0.16 0.17 0.22 0.27 0.23 0.20 0.18 0.20 0.13 0.08 0.07 0.07 0.08 0.09 0.14 0.16 0.16 0.16 0.16 0.20 0.28 0.35 0.37 0.32 0.27 0.24 0.26 0.25 0.26 0.26 0.27 0.31 0.34 0.37
0.18 0.14 0.14 0.20 0.17 0.12 0.09 0.08 0.10 0.15 0.19 0.24 0.27 0.26 0.24 0.26 0.20 0.16 0.11 0.08 0.08 0.08 0.09 0.08 0.10 0.12 0.13 0.12 0.16 0.28 0.33 0.33 0.42 0.49 0.43 0.43 0.44 0.39 0.37 0.35 0.36 0.39 0.41 0.42
0.22 0.25 0.31 0.22 0.15 0.13 0.14 0.17 0.17 0.18 0.23 0.32 0.36 0.27 0.24 0.27 0.26 0.19 0.10 0.10 0.10 0.08 0.07 0.07 0.07 0.08 0.10 0.13 0.17 0.29 0.34 0.32 0.42 0.51 0.47 0.47 0.48 0.46 0.50 0.55 0.57 0.58 0.57 0.55
0.31 0.34 0.35 0.26 0.21 0.21 0.25 0.29 0.25 0.30 0.35 0.36 0.30 0.25 0.25 0.19 0.12 0.09 0.07 0.08 0.07 0.08 0.09 0.09 0.10 0.11 0.12 0.20 0.27 0.34 0.41 0.45 0.52 0.61 0.63 0.64 0.61 0.62 0.68 0.75 0.78 0.81 0.84 0.81
0.39 0.45 0.51 0.40 0.32 0.29 0.35 0.54 0.43 0.37 0.34 0.26 0.25 0.32 0.32 0.19 0.13 0.10 0.08 0.09 0.10 0.11 0.11 0.12 0.14 0.17 0.22 0.30 0.40 0.48 0.51 0.54 0.63 0.77 0.85 0.85 0.83 0.85 0.88 0.95 0.98 0.96 0.88 0.80
0.43 0.50 0.47 0.40 0.36 0.33 0.60 0.76 0.53 0.46 0.48 0.46 0.40 0.35 0.28 0.21 0.17 0.14 0.10 0.10 0.14 0.17 0.20 0.22 0.25 0.31 0.37 0.43 0.48 0.48 0.50 0.55 0.63 0.83 1.04 1.04 1.06 1.07 1.06 1.06 1.10 1.11 1.06 1.00
0.51 0.69 0.71 0.48 0.40 0.57 0.76 0.63 0.61 0.53 0.49 0.52 0.43 0.31 0.25 0.20 0.17 0.14 0.12 0.11 0.14 0.18 0.21 0.28 0.35 0.43 0.51 0.51 0.52 0.56 0.60 0.65 0.73 0.90 0.98 1.04 1.16 1.19 1.21 1.19 1.17 1.18 1.23 1.17
0.63 0.78 0.69 0.60 0.58 0.56 0.59 0.57 0.52 0.42 0.38 0.40 0.40 0.32 0.27 0.23 0.18 0.15 0.13 0.12 0.14 0.17 0.22 0.28 0.38 0.52 0.66 0.68 0.68 0.67 0.68 0.72 0.82 0.92 1.01 1.12 1.18 1.14 1.17 1.24 1.26 1.28 1.28 1.23
0.79 0.77 0.67 0.56 0.48 0.43 0.33 0.28 0.26 0.25 0.21 0.19 0.21 0.22 0.19 0.16 0.15 0.15 0.15 0.14 0.16 0.18 0.25 0.31 0.37 0.51 0.62 0.67 0.70 0.68 0.65 0.65 0.74 0.90 0.95 1.03 1.15 1.16 1.23 1.28 1.31 1.37 1.38 1.29
0.77 0.77 0.68 0.62 0.51 0.46 0.31 0.24 0.17 0.16 0.14 0.13 0.14 0.15 0.15 0.16 0.15 0.12 0.11 0.12 0.15 0.20 0.28 0.32 0.41 0.55 0.65 0.71 0.75 0.76 0.73 0.68 0.70 0.78 0.88 0.94 1.06 1.16 1.18 1.19 1.15 1.17 1.22 1.19
0.64 0.63 0.62 0.61 0.44 0.35 0.30 0.25 0.20 0.16 0.12 0.09 0.08 0.08 0.08 0.10 0.10 0.09 0.10 0.13 0.18 0.24 0.31 0.35 0.41 0.52 0.61 0.75 0.90 0.93 0.87 0.78 0.74 0.74 0.81 0.87 0.96 0.97 0.88 0.86 0.83 0.82 0.85 0.80
0.34 0.37 0.44 0.51 0.37 0.25 0.23 0.19 0.14 0.11 0.08 0.07 0.06 0.04 0.04 0.04 0.04 0.06 0.11 0.19 0.25 0.30 0.36 0.43 0.49 0.56 0.65 0.80 1.00 1.12 1.06 0.91 0.80 0.74 0.74 0.77 0.87 0.94 0.96 0.85 0.76 0.69 0.65 0.56
0.34 0.35 0.37 0.34 0.29 0.22 0.19 0.14 0.11 0.08 0.06 0.04 0.03 0.03 0.03 0.04 0.07 0.12 0.21 0.28 0.32 0.36 0.42 0.49 0.56 0.62 0.71 0.83 1.00 1.09 1.09 0.97 0.83 0.79 0.77 0.74 0.78 0.86 0.94 1.00 0.97 0.79 0.62 0.52
0.37 0.34 0.31 0.25 0.20 0.16 0.14 0.11 0.09 0.08 0.06 0.05 0.04 0.04 0.05 0.08 0.13 0.20 0.27 0.36 0.45 0.49 0.48 0.52 0.58 0.63 0.71 0.84 0.94 0.99 0.99 0.92 0.83 0.80 0.80 0.73 0.68 0.75 0.82 0.90 1.00 0.95 0.77 0.65
0.36 0.30 0.26 0.21 0.17 0.15 0.14 0.12 0.12 0.10 0.08 0.07 0.07 0.07 0.08 0.12 0.16 0.24 0.34 0.49 0.67 0.68 0.60 0.59 0.61 0.63 0.71 0.87 0.95 0.90 0.82 0.68 0.65 0.72 0.73 0.70 0.68 0.72 0.81 0.89 0.97 0.96 0.84 0.72
0.27 0.24 0.20 0.16 0.13 0.11 0.10 0.08 0.07 0.07 0.07 0.08 0.09 0.10 0.13 0.18 0.27 0.40 0.50 0.57 0.65 0.65 0.62 0.59 0.55 0.56 0.69 0.84 0.92 0.83 0.70 0.57 0.47 0.52 0.63 0.67 0.70 0.76 0.87 0.94 0.97 0.90 0.77 0.64
0.15 0.14 0.13 0.14 0.14 0.12 0.10 0.08 0.06 0.07 0.07 0.09 0.11 0.14 0.20 0.31 0.51 0.70 0.74 0.72 0.68 0.59 0.53 0.51 0.46 0.49 0.62 0.70 0.79 0.78 0.66 0.55 0.46 0.47 0.54 0.58 0.68 0.80 0.89 0.90 0.85 0.80 0.72 0.63
0.10 0.10 0.10 0.11 0.10 0.09 0.08 0.07 0.07 0.07 0.09 0.14 0.20 0.23 0.29 0.39 0.61 0.81 0.84 0.90 0.89 0.72 0.53 0.44 0.41 0.45 0.55 0.61 0.69 0.73 0.59 0.45 0.37 0.37 0.41 0.44 0.57 0.75 0.81 0.75 0.68 0.66 0.66 0.64
0.07 0.06 0.05 0.05 0.05 0.04 0.05 0.05 0.07 0.10 0.16 0.24 0.30 0.35 0.40 0.47 0.64 0.83 0.90 0.93 0.88 0.72 0.52 0.41 0.40 0.39 0.45 0.58 0.66 0.64 0.52 0.39 0.28 0.25 0.30 0.39 0.55 0.72 0.73 0.65 0.60 0.62 0.62 0.64
0.05 0.05 0.04 0.04 0.03 0.03 0.04 0.06 0.11 0.19 0.28 0.32 0.36 0.44 0.50 0.54 0.63 0.82 1.03 1.04 0.80 0.57 0.43 0.40 0.39 0.37 0.42 0.57 0.62 0.57 0.49 0.40 0.31 0.26 0.29 0.43 0.61 0.71 0.64 0.57 0.56 0.57 0.54 0.58
0.04 0.05 0.05 0.05 0.05 0.05 0.05 0.08 0.15 0.27 0.39 0.41 0.39 0.42 0.52 0.62 0.68 0.73 0.82 0.97 0.85 0.64 0.44 0.37 0.37 0.39 0.44 0.56 0.56 0.49 0.45 0.42 0.36 0.32 0.36 0.48 0.61 0.65 0.59 0.55 0.58 0.55 0.54 0.57
0.04 0.03 0.03 0.03 0.04 0.05 0.05 0.09 0.17 0.31 0.48 0.50 0.47 0.47 0.54 0.64 0.73 0.89 0.86 0.78 0.78 0.69 0.49 0.36 0.33 0.38 0.45 0.51 0.52 0.45 0.46 0.43 0.37 0.35 0.38 0.45 0.51 0.54 0.56 0.58 0.59 0.54 0.54 0.54
0.03 0.02 0.02 0.03 0.04 0.07 0.10 0.15 0.21 0.30 0.43 0.43 0.36 0.34 0.44 0.59 0.62 0.64 0.74 0.78 0.74 0.69 0.53 0.40 0.30 0.33 0.41 0.44 0.47 0.49 0.52 0.46 0.38 0.34 0.35 0.40 0.47 0.52 0.59 0.63 0.62 0.59 0.58 0.55
0.03 0.03 0.03 0.05 0.10 0.16 0.20 0.26 0.32 0.39 0.49 0.43 0.32 0.24 0.29 0.46 0.60 0.57 0.58 0.63 0.65 0.61 0.51 0.43 0.37 0.39 0.41 0.48 0.53 0.54 0.50 0.40 0.33 0.32 0.37 0.46 0.49 0.54 0.60 0.62 0.59 0.60 0.61 0.60
0.03 0.04 0.05 0.08 0.14 0.18 0.23 0.33 0.42 0.51 0.64 0.60 0.42 0.26 0.25 0.32 0.43 0.49 0.55 0.59 0.62 0.64 0.53 0.45 0.42 0.46 0.49 0.54 0.54 0.50 0.45 0.40 0.37 0.39 0.43 0.49 0.51 0.53 0.57 0.59 0.55 0.56 0.58 0.58
0.03 0.04 0.06 0.12 0.18 0.19 0.21 0.28 0.39 0.57 0.75 0.76 0.54 0.30 0.26 0.32 0.41 0.49 0.53 0.60 0.66 0.66 0.58 0.48 0.45 0.47 0.50 0.51 0.49 0.43 0.37 0.34 0.36 0.39 0.40 0.41 0.44 0.52 0.57 0.59 0.54 0.53 0.55 0.54